Probability
0 0 1 1 1 0 1 1 1 0 0 1 1 1 0 0 0 0 0 0 0 0 0 0 0 0 0 0 0 0 0 0 0 0 0 0 0 0 0 0 0 1 3
0 0 0 1 1 1 0 0 0 0 0 0 0 0 0 0 0 0 0 0 0 0 0 0 0 0 0 0 0 0 0 0 0 0 0 0 0 0 0 0 0 1 2
0 0 0 0 1 1 1 0 0 0 0 0 0 0 0 0 0 0 0 0 0 0 0 0 0 0 0 0 0 0 0 0 0 0 0 0 0 0 0 0 0 1 1
0 0 0 0 0 1 1 0 0 0 0 0 0 0 0 0 0 0 0 0 0 0 0 0 0 0 0 0 0 0 0 0 0 0 0 0 0 0 0 0 0 0 0
0 0 0 0 0 0 0 0 0 0 0 0 0 0 0 0 0 0 0 0 0 0 0 0 0 0 0 0 0 0 0 0 0 0 0 0 0 0 0 0 0 0 0
0 0 0 0 0 0 0 0 1 0 0 0 0 0 0 0 0 0 0 0 0 0 0 0 0 0 0 0 0 0 0 0 0 0 0 0 0 0 0 0 0 0 0
0 0 0 0 0 0 0 0 0 0 0 0 0 0 0 0 0 0 0 0 0 0 0 0 0 0 0 0 0 0 0 0 0 0 0 0 0 0 0 0 0 0 0
0 0 0 0 0 0 0 0 0 0 0 0 0 0 0 0 0 0 0 0 0 0 0 0 0 0 0 0 0 0 0 0 0 0 0 0 0 0 0 0 0 0 0
0 0 0 0 0 0 0 0 0 0 0 0 0 0 0 0 0 0 0 0 0 0 0 0 0 0 0 0 0 0 0 0 0 0 0 0 0 0 0 0 0 0 0
0 0 0 0 0 0 0 0 0 0 0 0 0 0 0 0 0 0 0 0 0 0 0 0 0 0 0 0 0 0 0 0 0 0 0 0 0 0 0 0 0 0 0
0 0 0 0 0 0 0 0 0 0 0 0 0 0 0 0 0 0 0 0 0 0 0 0 0 0 0 0 0 0 0 0 0 0 0 0 0 0 0 0 0 0 0
0 0 0 0 0 0 0 0 0 0 0 0 0 0 0 0 0 0 0 0 0 0 0 0 0 0 0 0 0 0 0 0 0 0 0 0 0 0 0 0 0 0 0
0 0 0 0 0 0 0 0 0 0 0 0 0 0 0 0 0 0 0 0 0 0 0 0 0 0 0 0 0 0 0 0 0 0 0 0 0 0 0 0 0 0 0
0 0 0 0 0 0 0 0 0 0 0 0 0 0 0 0 0 0 0 0 0 0 0 0 0 0 0 0 0 0 0 0 0 0 0 0 0 0 0 0 0 0 0
0 0 0 0 0 0 0 0 0 0 0 0 0 0 0 0 0 0 0 0 0 0 0 0 0 0 0 0 0 0 0 0 0 0 0 0 0 0 0 0 0 0 0
0 0 0 0 0 0 0 0 0 0 0 0 0 0 0 0 0 0 0 0 0 0 0 0 0 0 0 0 0 0 0 0 0 0 0 0 0 0 0 0 0 0 0
0 0 0 0 0 0 0 0 0 0 0 0 0 0 0 0 0 0 0 0 0 0 0 0 0 0 0 0 0 0 0 0 0 0 0 0 0 0 0 0 0 0 0
0 0 0 0 0 0 0 0 0 0 0 0 0 0 0 0 0 0 0 0 0 0 0 0 0 0 0 0 0 0 0 0 0 0 0 0 0 0 0 0 0 0 0
0 0 0 0 0 0 0 0 0 0 0 0 0 0 0 0 0 0 0 0 0 0 0 0 0 0 0 0 0 0 0 0 0 0 0 0 0 0 0 0 0 0 0
0 0 0 0 0 0 0 0 0 0 0 0 0 0 0 0 0 0 0 0 0 0 0 0 0 0 0 0 0 0 0 0 0 0 0 0 0 0 0 0 0 0 0
0 0 0 0 0 0 0 0 0 0 0 0 0 0 0 0 0 0 0 0 0 0 0 0 0 0 0 0 0 0 0 0 0 0 0 0 0 0 0 0 0 0 0
0 0 0 0 0 0 0 0 0 0 0 0 0 0 0 0 0 0 0 0 0 0 0 0 0 0 0 0 0 0 0 0 0 0 0 0 0 0 0 0 0 0 0
0 0 0 0 0 0 0 0 0 0 0 0 0 0 0 0 0 0 0 0 0 0 0 0 0 0 0 0 0 0 0 0 0 0 0 0 0 0 0 0 0 0 0
0 0 0 0 0 0 0 0 0 0 0 0 0 0 0 0 0 0 0 0 0 0 0 0 0 0 0 0 0 0 0 0 0 0 0 0 0 0 0 0 0 0 0
0 0 0 0 0 0 0 0 0 0 0 0 0 0 0 0 0 0 0 0 0 0 0 0 0 0 0 0 0 0 0 0 0 0 0 0 0 0 0 0 0 0 0
0 0 0 0 0 0 0 0 0 0 0 0 0 0 0 0 0 0 0 0 0 0 0 0 0 0 0 0 0 0 0 0 0 0 0 0 0 0 0 0 0 0 0
Wind_Speed
2 2 3 3 2 2 2 2 2 1 1 1 1 1 1 2 2 2 3 3 3 3 2 2 2 1 1 1 0 1 1 0 1 1 1 1 1 1 1 1 2 2 2
1 2 2 2 2 2 2 2 2 2 1 1 1 1 2 2 2 2 2 3 3 2 2 2 2 2 1 1 1 1 0 1 0 1 1 0 1 1 1 1 2 2 2
2 2 2 2 2 2 1 1 2 1 1 1 2 2 2 2 1 1 2 2 2 2 2 2 2 1 1 1 1 0 1 1 1 0 1 1 2 0 1 1 1 1 1
3 3 2 2 2 1 1 1 2 2 1 2 2 3 2 1 1 1 1 2 2 2 2 2 2 1 1 1 1 1 1 0 1 1 1 1 1 1 1 1 1 1 1
3 3 2 2 2 1 1 2 2 2 1 2 2 2 2 1 1 2 2 2 2 2 2 2 1 1 1 1 1 1 1 0 1 1 1 1 1 1 1 2 2 1 1
3 3 3 2 2 2 2 2 2 2 1 1 2 2 3 2 2 2 1 1 1 1 1 1 1 1 1 1 1 1 1 1 1 1 1 1 1 2 2 3 3 2 2
4 4 3 2 1 1 1 2 2 2 2 2 1 1 2 3 3 2 1 1 1 0 0 0 0 0 1 1 1 1 1 1 2 2 1 1 2 1 2 2 2 2 2
3 4 3 3 2 2 2 2 2 1 1 2 2 2 1 1 1 1 1 1 1 1 1 1 1 1 1 1 1 1 2 1 2 2 2 1 2 2 2 2 2 2 2
3 3 3 3 2 2 2 2 2 1 1 2 2 2 2 2 1 1 1 1 0 0 0 1 1 1 1 1 1 1 2 1 2 2 2 2 1 2 1 1 2 3 3
3 3 3 2 2 2 2 2 2 2 1 2 1 2 2 2 2 2 1 1 1 1 0 0 1 1 1 1 1 1 2 1 2 1 2 2 2 2 1 1 2 2 3
3 2 2 2 2 2 2 2 2 2 2 2 2 2 1 2 2 1 1 1 0 0 0 0 0 1 1 1 1 2 2 2 2 2 2 3 2 2 1 1 2 2 2
2 2 2 2 2 2 2 2 2 2 2 2 2 1 1 1 1 1 1 1 1 0 0 1 1 1 1 1 2 2 2 2 2 2 2 3 2 2 1 1 2 2 2
1 1 2 2 2 2 2 2 2 2 2 2 2 1 1 1 1 1 1 1 1 1 1 1 1 2 1 2 2 3 3 2 2 2 3 3 2 3 2 2 2 2 2
1 1 1 1 1 1 2 2 2 2 2 2 2 1 1 0 0 0 1 1 1 1 1 1 2 2 2 2 2 2 2 2 3 3 3 3 3 3 3 2 2 2 2
1 1 2 2 2 1 1 1 1 1 2 2 1 1 1 0 0 0 1 1 1 2 1 1 2 2 2 2 2 2 3 3 3 3 3 3 3 4 3 3 3 2 2
2 1 1 2 2 2 1 1 1 2 2 2 2 1 1 0 0 1 1 1 2 2 2 2 2 2 2 4 5 4 3 3 3 3 2 3 2 3 3 4 4 4 3
2 2 2 2 2 2 2 2 2 2 2 1 1 1 1 1 0 1 1 2 2 2 2 2 2 3 3 5 5 5 3 3 3 3 3 2 2 2 2 2 3 3 4
2 2 2 2 1 1 1 1 2 2 1 1 1 1 1 1 1 1 2 2 2 2 2 3 3 3 3 5 5 4 3 2 3 3 3 3 3 3 3 2 3 3 3
2 1 1 1 1 1 1 1 1 1 1 1 1 1 1 1 1 2 2 2 2 2 3 3 3 3 4 5 5 4 2 2 3 3 3 3 3 5 4 3 4 4 3
1 1 1 0 1 1 1 2 1 1 2 2 2 1 1 2 2 2 2 2 2 3 3 3 3 3 3 5 5 4 2 2 2 2 3 4 4 5 5 4 4 5 4
2 2 1 0 0 1 2 2 1 2 2 1 1 1 1 2 2 2 2 2 2 2 3 3 3 3 3 5 5 5 2 2 2 3 3 3 6 6 7 6 5 6 5
2 2 1 1 1 1 2 2 2 1 0 1 1 2 2 2 2 2 2 2 2 2 3 3 3 3 3 4 5 6 5 4 3 3 3 4 7 8 8 6 6 7 4
2 2 1 2 1 0 1 2 2 1 0 1 2 2 2 2 2 2 2 2 2 2 3 3 3 3 2 3 5 6 6 6 4 3 6 7 8 8 5 6 6 4 3
1 1 1 2 2 1 1 2 1 0 1 2 2 2 2 3 2 2 2 2 3 3 3 3 3 3 3 3 3 3 3 4 4 3 4 6 7 6 5 4 3 3 3
1 1 2 3 3 2 2 2 1 1 2 2 3 3 3 3 2 2 3 3 4 4 4 4 4 4 4 5 8 5 4 3 4 3 2 2 2 2 2 2 2 2 2
2 2 2 3 3 2 2 2 2 2 2 3 3 2 2 2 2 2 2 5 5 7 8 8 7 6 8 9 9 9 8 8 6 3 2 3 2 3 3 3 3 3 3
Wind_Direction
168 125 111 98 95 90 92 99 100 84 94 112 120 116 103 88 75 65 58 68 63 57 58 57 55 52 63 47 74 105 102 97 78 84 48 359 50 119 146 163 151 130 121
147 85 81 96 103 104 102 113 118 125 123 132 149 133 120 105 97 86 73 66 65 63 61 60 55 53 61 52 47 70 148 172 125 130 143 229 323 330 231 170 155 148 120
155 127 101 76 65 67 71 97 117 123 115 119 124 112 100 91 89 73 81 65 65 60 65 68 65 61 72 65 3 50 107 204 235 173 158 170 207 239 258 228 168 139 125
147 134 120 95 77 59 55 75 86 90 94 102 115 123 134 139 136 122 111 92 79 69 52 57 62 62 61 54 344 338 336 206 242 274 292 258 170 166 213 270 178 122 134
134 132 124 113 94 81 76 80 76 72 86 104 122 136 124 115 107 106 113 104 92 77 48 42 55 50 30 27 357 337 333 274 252 251 275 280 289 220 200 233 216 224 213
135 128 119 106 84 74 74 82 94 72 61 106 125 127 121 116 115 107 118 121 115 95 58 39 38 20 8 349 304 290 280 273 269 274 252 219 215 224 233 236 217 218 220
139 133 128 122 117 101 96 89 92 77 62 70 105 132 138 138 147 149 154 140 136 93 172 18 297 309 316 310 301 288 274 270 266 269 279 274 254 254 259 228 220 221 224
134 132 136 143 146 131 130 116 98 86 74 79 73 63 97 133 142 137 140 158 181 203 208 235 273 291 302 319 293 288 282 279 266 274 275 276 278 290 250 213 205 224 227
135 130 131 132 136 132 145 137 123 93 86 83 80 70 62 77 87 107 102 89 51 346 215 208 259 290 298 293 281 272 274 273 268 263 261 264 274 283 263 242 213 219 226
138 131 127 123 125 134 132 127 122 104 81 76 80 75 74 78 70 70 84 88 54 32 204 258 264 278 295 296 284 287 275 269 272 267 253 256 271 268 254 239 257 239 225
149 142 122 116 113 117 126 133 128 114 99 86 73 65 65 75 75 75 55 60 86 119 175 203 285 284 284 283 281 281 279 261 265 267 259 260 274 257 246 248 261 254 228
149 153 144 132 128 134 136 141 139 135 129 112 97 87 59 63 70 57 31 20 5 324 226 210 241 264 279 283 280 280 284 265 265 268 266 271 276 253 244 243 250 248 241
156 147 146 154 160 166 168 158 148 151 142 131 131 123 96 76 54 25 11 1 334 322 314 271 239 243 253 266 275 273 274 274 274 275 273 276 260 250 250 245 251 254 261
176 169 173 174 174 184 185 168 161 153 147 141 144 150 162 190 237 344 352 330 308 298 281 293 285 271 269 273 275 279 276 277 274 272 270 268 248 243 246 246 247 249 247
221 194 196 192 185 191 187 166 164 154 148 145 159 179 179 178 16 348 322 318 304 294 292 287 285 292 286 273 275 274 266 265 271 274 275 268 256 257 258 256 245 241 238
232 247 222 197 203 206 204 189 179 161 152 167 193 188 159 150 280 307 310 315 307 302 301 292 288 282 285 291 293 290 261 258 255 258 266 266 253 254 266 271 267 257 242
251 250 243 237 220 210 207 204 186 151 150 180 190 178 176 201 256 297 308 298 290 292 297 291 285 283 283 290 292 294 283 259 250 250 249 252 250 243 237 256 277 279 271
266 260 260 258 236 192 180 159 137 146 167 184 201 201 187 227 273 274 275 286 294 287 283 286 284 285 284 293 296 301 297 273 260 253 248 245 239 241 246 239 251 260 264
275 265 266 254 232 175 156 137 137 156 183 207 229 232 214 232 250 255 264 281 289 290 287 286 283 284 286 288 300 311 294 277 277 275 266 254 245 247 254 243 243 257 266
358 339 317 331 165 168 137 145 172 191 218 229 235 242 231 228 242 256 272 286 286 285 293 291 286 279 276 279 289 298 287 275 278 279 275 267 267 260 254 247 240 246 254
1 4 360 344 229 146 134 167 204 226 241 261 268 262 246 240 246 260 274 278 284 287 287 288 292 285 281 275 279 284 287 264 265 265 269 269 271 270 266 263 255 254 254
358 7 2 327 321 131 157 206 239 260 294 260 259 263 263 257 245 245 267 268 261 265 272 281 289 288 289 283 279 286 291 292 271 264 266 268 271 272 274 270 262 263 261
339 347 336 313 315 207 187 225 265 290 252 252 257 268 272 264 249 234 243 254 249 252 263 263 273 284 291 289 292 291 292 292 289 269 268 275 275 274 271 266 261 254 234
310 331 320 291 285 278 265 258 284 290 230 244 257 260 261 263 246 239 236 240 242 247 255 259 266 277 278 276 276 273 277 281 287 278 269 272 274 276 276 263 248 231 222
295 278 253 258 264 271 278 279 249 210 239 250 257 259 255 253 249 243 237 249 241 242 252 251 251 257 265 266 274 277 270 266 263 281 282 276 268 260 253 246 244 233 228
277 273 265 261 262 260 266 266 237 204 214 245 251 252 254 256 254 262 287 283 277 279 276 271 272 271 273 279 276 279 281 281 278 280 254 250 243 242 244 242 250 244 234